TimeEET,TemperatureF,Dew PointF,Humidity,Sea Level PressureIn,VisibilityMPH,Wind Direction,Wind SpeedMPH,Gust SpeedMPH,PrecipitationIn,Events,Conditions,WindDirDegrees,DateUTC
12:50 AM,48.2,46.4,93,29.44,6.2,Calm,Calm,-,N/A,,Mostly Cloudy,0,2014-03-03 22:50:00
1:50 AM,48.2,46.4,93,29.44,6.2,Calm,Calm,-,N/A,,Mostly Cloudy,0,2014-03-03 23:50:00
2:50 AM,48.2,44.6,87,29.44,6.2,SW,8.1,-,N/A,,Scattered Clouds,230,2014-03-04 00:50:00
3:50 AM,48.2,44.6,87,29.47,6.2,Calm,Calm,-,N/A,,Scattered Clouds,0,2014-03-04 01:50:00
4:50 AM,48.2,42.8,82,29.50,6.2,West,5.8,-,N/A,,Partly Cloudy,280,2014-03-04 02:50:00
5:20 AM,48.2,42.8,82,29.50,6.2,Calm,Calm,-,N/A,,Partly Cloudy,0,2014-03-04 03:20:00
5:50 AM,50.0,41.0,71,29.50,6.2,SSE,6.9,-,N/A,,Partly Cloudy,150,2014-03-04 03:50:00
6:20 AM,51.8,41.0,67,29.50,6.2,SW,6.9,-,N/A,,Partly Cloudy,220,2014-03-04 04:20:00
6:50 AM,51.8,41.0,67,29.53,6.2,Calm,Calm,-,N/A,,Partly Cloudy,0,2014-03-04 04:50:00
7:20 AM,51.8,41.0,67,29.53,6.2,Calm,Calm,-,N/A,,Partly Cloudy,0,2014-03-04 05:20:00
7:50 AM,53.6,44.6,72,29.53,6.2,WSW,8.1,-,N/A,,Partly Cloudy,250,2014-03-04 05:50:00
8:20 AM,55.4,42.8,63,29.53,6.2,West,6.9,-,N/A,,Partly Cloudy,260,2014-03-04 06:20:00
8:50 AM,57.2,44.6,63,29.56,6.2,WSW,5.8,-,N/A,,Partly Cloudy,240,2014-03-04 06:50:00
9:50 AM,57.2,44.6,63,29.56,6.2,South,9.2,-,N/A,,Partly Cloudy,190,2014-03-04 07:50:00
10:20 AM,59.0,42.8,55,29.56,6.2,South,6.9,-,N/A,,Partly Cloudy,180,2014-03-04 08:20:00
10:50 AM,59.0,42.8,55,29.56,6.2,South,4.6,-,N/A,,Partly Cloudy,180,2014-03-04 08:50:00
11:20 AM,59.0,42.8,55,29.56,6.2,SSE,6.9,-,N/A,,Partly Cloudy,160,2014-03-04 09:20:00
11:50 AM,60.8,41.0,48,29.56,6.2,SE,9.2,-,N/A,,Partly Cloudy,140,2014-03-04 09:50:00
12:20 PM,60.8,41.0,48,29.56,6.2,SSW,5.8,-,N/A,,Partly Cloudy,200,2014-03-04 10:20:00
12:50 PM,62.6,41.0,45,29.56,6.2,South,5.8,-,N/A,,Partly Cloudy,190,2014-03-04 10:50:00
1:20 PM,60.8,41.0,48,29.56,6.2,SSW,4.6,-,N/A,,Partly Cloudy,200,2014-03-04 11:20:00
1:50 PM,60.8,39.2,45,29.56,6.2,South,4.6,-,N/A,,Mostly Cloudy,170,2014-03-04 11:50:00
2:20 PM,60.8,39.2,45,29.56,6.2,South,9.2,-,N/A,,Mostly Cloudy,170,2014-03-04 12:20:00
2:50 PM,59.0,44.6,59,29.56,6.2,SSE,8.1,-,N/A,,Mostly Cloudy,160,2014-03-04 12:50:00
3:20 PM,59.0,44.6,59,29.56,6.2,SSE,6.9,-,N/A,,Mostly Cloudy,160,2014-03-04 13:20:00
3:50 PM,59.0,44.6,59,29.53,6.2,SSE,6.9,-,N/A,,Mostly Cloudy,150,2014-03-04 13:50:00
4:20 PM,59.0,48.2,67,29.53,6.2,SSE,9.2,-,N/A,,Mostly Cloudy,150,2014-03-04 14:20:00
4:50 PM,59.0,48.2,67,29.53,6.2,SSE,8.1,-,N/A,,Mostly Cloudy,160,2014-03-04 14:50:00
5:20 PM,59.0,50.0,72,29.53,6.2,SSE,8.1,-,N/A,Rain,Light Rain,160,2014-03-04 15:20:00
5:50 PM,57.2,51.8,82,29.56,5.0,SSE,11.5,-,N/A,Rain,Light Rain,150,2014-03-04 15:50:00
6:20 PM,55.4,51.8,88,29.56,5.0,SSE,9.2,-,N/A,Rain,Light Rain,160,2014-03-04 16:20:00
6:50 PM,-9999,-9999,N/A,29.56,5.0,South,9.2,-,N/A,Rain,Light Rain,170,2014-03-04 16:50:00
7:20 PM,55.4,53.6,94,29.59,5.0,South,5.8,-,N/A,Rain,Light Rain,190,2014-03-04 17:20:00
7:50 PM,55.4,55.4,100,29.59,5.0,SSW,6.9,-,N/A,Rain,Light Rain,200,2014-03-04 17:50:00
8:20 PM,53.6,53.6,100,29.59,5.0,Calm,Calm,-,N/A,Rain,Light Rain,0,2014-03-04 18:20:00
8:50 PM,53.6,53.6,100,29.56,6.2,ENE,6.9,-,N/A,,Overcast,70,2014-03-04 18:50:00
9:20 PM,53.6,51.8,94,29.56,6.2,Calm,Calm,-,N/A,,Mostly Cloudy,0,2014-03-04 19:20:00
9:50 PM,51.8,48.2,88,29.59,6.2,Calm,Calm,-,N/A,,Mostly Cloudy,0,2014-03-04 19:50:00
10:20 PM,51.8,50.0,94,29.59,6.2,Calm,Calm,-,N/A,,Mostly Cloudy,0,2014-03-04 20:20:00
10:50 PM,53.6,50.0,88,29.59,6.2,SSE,5.8,-,N/A,,Mostly Cloudy,160,2014-03-04 20:50:00
11:50 PM,53.6,50.0,88,29.62,6.2,SSE,4.6,-,N/A,,Scattered Clouds,150,2014-03-04 21:50:00